Regional Weather Roundup
Issued by NWS Newport/Morehead, NC

Current Version | Previous Version | Graphics & Text | Print | Product List | Glossary Off
Versions: 1 2 3 4 5 6 7 8 9 10 11 12 13 14 15 16 17 18 19 20 21 22 23 24 25 26 27 28 29 30 31 32 33 34 35 36 37 38 39 40 41 42 43 44 45 46 47 48 49 50

000
ASUS42 KMHX 250010
RWRMHX
WEATHER ROUNDUP FOR EASTERN NORTH CAROLINA
NATIONAL WEATHER SERVICE NEWPORT/MOREHEAD CITY NC
800 PM EDT FRI OCT 24 2014

NOTE: "FAIR" INDICATES FEW OR NO CLOUDS BELOW 12,000 FEET
WITH NO SIGNIFICANT WEATHER AND/OR OBSTRUCTIONS TO VISIBILITY

NCZ015>017-031-032-045>047-102-103-250100-
NORTH COAST

CITY           SKY/WX    TMP DP  RH WIND       PRES   REMARKS
EDENTON        PTCLDY    57  50  79 CALM      29.95R
ELIZABETH CITY PTCLDY    55  47  74 W5        29.94S
KITTY HAWK     CLEAR     60  53  78 CALM      29.92S
MANTEO         CLEAR     60  54  79 W3        29.94S

$$

NCZ045>047-081-094-103-104-250100-
CENTRAL COAST

CITY           SKY/WX    TMP DP  RH WIND       PRES   REMARKS
FRISCO         CLEAR     59  55  87 W5        29.95R
SWANQUARTER      N/A     59 N/A N/A NW5       29.91S

$$

NCZ095-097-098-100-101-250100-
SOUTHERN COAST

CITY           SKY/WX    TMP DP  RH WIND       PRES   REMARKS
BEAUFORT       CLEAR     62  53  72 W5        29.97R
CEDAR ISLAND     N/A     61 N/A N/A SW3       30.00R
JACKSONVILLE   CLEAR     55  52  89 CALM      29.98R
PINEY ISLAND   CLEAR     65  53  65 W7        29.96R
WILMINGTON     CLEAR     55  52  89 CALM      29.99R


$$

NCZ011>013-027>030-043-044-078>080-089-090>093-098-250100-
COASTAL PLAIN

CITY           SKY/WX    TMP DP  RH WIND       PRES   REMARKS
AHOSKIE        PTCLDY    53  49  87 CALM      29.96S
CLINTON        CLEAR     55  53  90 CALM      29.98S
ELIZABETHTOWN  PTCLDY    58  51  79 CALM      29.98R
GOLDSBORO      PTCLDY    60  55  85 W2        29.96R
GREENVILLE     PTCLDY    54  54 100 CALM      29.99R
HAVELOCK       CLEAR     54  49  83 SW7       29.98R
KENANSVILLE    CLEAR     52  49  92 CALM      29.99S
KINSTON        PTCLDY    54  52  94 CALM      29.98R
NEW BERN       PTCLDY    56  52  86 SW3       29.98R
RICHLANDS      CLEAR     54  48  82 CALM      29.99R
ROCKY MOUNT    PTCLDY    52  49  89 CALM      29.97S
WASHINGTON     PTCLDY    55  51  85 CALM      29.97R
WHITEVILLE     MOCLDY    58  52  79 CALM      29.98S

$$

AMZ130-135-150-152-154-156-158-170-250-252-270-ANZ085-086-088-633-658-670-250100-
MARINE OBSERVATIONS

STATION/POSITION TIME  TEMP    WIND        PRES    WAVE   SWELL
                       AIR SEA DIR/SP/G            HT/PER HT/PER
                 (UTC) (F)     (DEG/KT/KT) (MB)    (FT/S) (FT/S)
CHESAPEAKE LIGHT 2300   65     310/ 15/ 16 1013.7
64 E VA BEACH    0000   65 66  320/ 16/ 17 1012.4    4/ 9   3/ 9
DUCK             0000   62 66  280/  6/  7 1012.8
2 E DUCK         0000                        N/A     3/ 7   2/11
10 NE DUCK       0000      67                N/A     4/10   2/11
OREGON INLET     0000   61 64  290/  4/  6 1013.5
13E OREGON INLT  0000      69                N/A     5/11   2/11
HATTERAS CG      0000   65 65  300/  8/ 10 1014.3
DIAMOND BUOY     0000   65     290/ 14/ 17 1014.1    4/ 9   2/ 9
17 S OCRACOKE    2300          VRB 12/ 16  1013.8
CAPE LOOKOUT     2300   66     290/ 10/ 11 1014.2
BEAUFORT LAB     0000   64 68  280/  2/  3 1014.1
30 SE NEW RIVER  0000   68 75  290/  8/ 12 1014.7    3/10   3/10
5 SE WRIGHTSVLE  0000   63 72  250/ 12/ 12   N/A
225 S CAPE HAT   NOT AVBL
41 SE CHARLESTON 0000   69 78  320/  6/  8 1015.1    3/10   3/10

$$



USA.gov is the U.S. government's official web portal to all federal, state and local government web resources and services.